SCP
-0 -0 -0 -0 -0 -0 -0 -0 0 -0 -0 -0 -0 -0 -0 -0 -0 -0 -0 -0 -0 -0 -0 -0 -0 -0 -0 -0 -0 -0 0 0 0 -0 -0 -0 -0 -0 -0 -0 -0 -0 -0
0 0 -0 -0 -0 -0 -0 -0 0 -0 -0 -0 -0 -0 -0 -0 -0 -0 -0 -0 -0 -0 -0 -0 -0 -0 -0 -0 0 0 0 0 -0 -0 -0 -0 -0 -0 -0 0 -0 0 -0
0 0 -0 -0 -0 -0 -0 0 0 0 0 -0 -0 -0 -0 -0 -0 -0 -0 -0 -0 -0 -0 -0 -0 -0 -0 -0 0 0 0 0 0 -0 -0 -0 -0 -0 -0 -0 -0 -0 0
0 -0 -0 -0 -0 -0 -0 0 0 0 0 0 0 0 0 -0 -0 -0 -0 -0 -0 -0 -0 -0 -0 -0 -0 -0 0 0 0 0 0 0 -0 -0 -0 0 -0 -0 0 0 0
-0 -0 0 -0 -0 -0 -0 0 0 0 0 0 0 0 -0 -0 -0 -0 -0 -0 -0 -0 -0 -0 -0 -0 -0 -0 0 0 0 0 0 0 0 0 0 0 0 -0 0 0 0
0 -0 -0 -0 -0 -0 -0 -0 0 0 0 0 0 0 -0 -0 -0 -0 -0 -0 -0 -0 -0 -0 -0 -0 0 0 0 0 0 0 0 0 0 0 0 0 0 -0 0 0 0
0 0 0 0 -0 -0 -0 0 0 0 0 0 0 0 0 0 0 0 0 0 -0 -0 -0 -0 -0 0 0 0 0 0 0 0 0 0 0 0 0 0 0 0 -0 0 0
-0 -0 -0 0 0 0 0 0 0 0 0 0 0 0 0 0 0 0 0 0 0 0 0 0 0 0 0 0 0 0 0 0 0 0 0 0 0 0 0 0 0 0 0
-0 -0 -0 -0 -0 0 0 0 -0 -0 -0 0 -0 0 0 -0 -0 -0 -0 -0 0 -0 0 0 0 0 0 0 0 0 0 0 0 0 0 0 0 1 0 0 0 0 0
-0 -0 -0 -0 -0 -0 -0 -0 -0 -0 -0 -0 -0 -0 -0 0 0 -0 0 0 -0 1 1 1 1 0 1 0 0 0 0 0 0 0 0 0 0 0 0 0 0 0 1
-0 -0 -0 0 -0 -0 -0 -0 -0 -0 -0 -0 -0 -0 0 0 0 0 1 1 1 1 1 1 1 1 1 1 0 1 1 0 0 0 0 0 0 1 1 1 0 -0 0
0 0 0 0 0 0 0 0 0 -0 -0 0 -0 0 0 0 0 0 0 0 0 1 1 1 0 0 0 0 0 0 0 0 0 0 0 0 0 0 1 0 -0 0 1
0 0 0 0 0 0 -0 0 0 0 0 0 0 0 0 0 0 0 0 0 0 0 0 0 0 0 0 0 0 0 0 0 0 0 0 0 0 0 1 1 1 1 0
0 0 0 0 0 0 0 0 0 0 0 0 0 0 0 0 0 0 0 0 0 0 0 0 0 0 0 0 0 0 0 0 0 0 0 0 0 0 0 1 1 1 0
0 0 0 0 0 0 0 0 0 0 0 0 0 0 0 0 0 0 0 0 0 0 0 0 0 0 0 0 0 0 0 0 0 0 0 0 0 0 0 1 1 0 0
0 0 0 0 0 0 0 0 0 0 0 0 0 0 0 0 0 0 0 0 0 0 0 0 0 0 0 0 0 0 0 0 0 0 0 0 0 1 0 1 0 0 0
0 0 0 0 0 0 0 0 0 0 0 0 0 0 0 0 0 0 0 0 0 0 0 0 0 0 0 0 0 0 0 -0 0 0 0 0 0 -0 1 1 1 0 0
0 0 0 0 0 0 0 0 0 0 0 0 0 0 0 0 0 0 0 0 0 0 0 0 0 0 0 0 0 0 0 0 0 0 0 0 0 0 0 1 1 1 1
0 0 0 0 0 0 0 0 0 0 0 0 0 0 0 0 0 0 0 0 0 0 0 0 0 0 0 0 0 0 0 0 0 0 0 0 0 0 0 0 0 0 0
0 0 0 0 0 0 0 0 0 0 0 0 0 0 0 0 0 0 0 0 0 0 0 0 0 0 0 0 0 0 0 0 0 0 0 0 0 0 0 0 0 0 0
0 0 0 0 0 0 0 0 0 0 0 0 0 0 0 0 0 0 0 0 0 0 0 0 0 0 0 0 0 0 0 0 0 0 0 0 0 0 0 0 0 0 0
0 0 0 0 0 0 0 0 0 0 0 0 0 0 0 0 0 0 0 0 0 0 0 0 0 0 0 0 0 0 0 0 0 0 0 0 0 0 0 0 0 0 0
0 0 0 0 0 0 0 0 0 0 0 0 0 0 0 0 0 0 0 0 0 0 0 0 0 0 0 0 0 0 0 0 0 0 0 0 0 0 0 0 0 0 0
0 0 0 0 0 0 0 0 0 0 0 0 0 0 0 0 0 0 0 0 0 0 0 0 0 0 0 0 0 0 0 0 0 0 0 0 0 0 0 0 0 0 0
0 0 0 0 0 0 0 0 0 0 0 0 0 0 0 0 0 0 0 0 0 0 0 0 0 0 0 0 0 0 0 0 0 0 0 0 0 0 0 0 -0 -0 -0
0 0 0 0 0 0 0 0 0 0 0 0 0 0 0 0 0 0 0 0 0 0 0 0 0 0 0 0 0 0 0 0 0 0 0 0 0 0 0 0 0 0 0
Wind_Speed_500mb
31 28 27 27 27 28 28 27 25 26 27 26 26 26 25 25 24 24 22 21 19 19 18 17 17 18 19 20 23 23 21 22 24 31 31 30 31 29 26 25 24 24 25
29 29 26 25 25 26 25 23 23 23 24 23 22 21 20 20 19 19 18 18 17 16 15 15 14 13 12 11 13 14 16 18 18 19 20 21 20 24 23 22 21 21 22
24 26 25 23 24 23 23 21 20 20 19 17 17 18 17 17 17 17 17 16 16 16 17 16 15 14 13 11 8 5 3 2 4 8 9 10 5 12 15 16 16 16 17
22 23 22 22 21 21 19 18 16 16 15 15 15 16 17 17 18 18 18 19 19 19 19 20 19 18 17 15 12 8 4 7 8 4 5 10 7 3 5 9 11 10 10
25 20 18 17 17 17 16 14 13 12 12 13 13 13 14 15 16 17 18 20 20 21 22 21 22 22 22 21 19 16 10 9 10 7 4 9 16 14 5 2 6 9 5
14 17 20 16 13 12 11 10 10 10 11 10 12 14 15 15 15 16 16 17 19 20 21 23 24 24 25 24 23 21 19 14 10 12 13 13 8 16 18 7 6 11 9
12 14 18 15 12 11 11 10 9 9 10 13 14 15 15 16 16 15 16 19 19 20 23 25 25 26 26 27 27 24 21 18 16 15 18 14 13 15 33 20 14 14 14
27 27 25 22 15 14 13 12 13 14 16 17 19 16 16 18 17 20 21 20 20 23 27 31 29 26 25 25 26 23 18 17 16 17 20 19 22 21 37 31 24 20 19
32 31 31 28 25 23 22 23 22 20 17 14 13 10 11 16 14 14 21 19 21 25 24 23 24 23 20 19 20 22 24 25 23 20 26 28 29 26 20 36 28 23 24
22 25 23 24 27 27 27 21 18 16 13 15 18 13 6 11 13 16 12 15 15 20 18 23 22 22 20 21 23 25 24 30 33 31 31 29 30 32 18 28 29 35 30
18 12 18 20 20 23 19 13 14 9 5 9 15 18 13 13 18 20 18 5 8 17 11 10 19 18 18 21 22 22 24 27 27 28 32 30 19 23 27 35 23 36 40
24 18 28 21 19 13 7 12 9 9 7 7 16 18 16 15 25 24 26 22 16 14 16 16 18 22 22 22 21 24 21 23 23 30 33 36 19 8 15 17 16 31 35
19 20 24 23 19 17 19 21 16 13 4 8 16 21 23 25 30 33 25 26 29 28 27 28 30 33 33 31 27 22 22 24 27 29 30 42 45 50 53 38 34 27 38
19 23 18 18 19 20 21 18 16 8 2 8 12 20 28 33 37 40 41 35 26 33 26 26 32 39 41 35 26 22 19 20 25 24 31 38 38 38 47 44 35 25 32
19 22 24 27 31 23 18 17 14 5 8 12 19 25 30 35 41 46 47 40 35 31 33 36 39 35 31 31 32 30 29 28 28 29 35 37 35 41 37 46 43 32 41
33 29 18 23 27 27 21 23 17 12 12 16 24 28 31 39 36 35 39 41 42 39 43 44 40 38 35 42 36 39 37 36 31 26 29 31 24 30 18 40 40 38 40
38 31 31 27 27 23 17 11 11 15 19 14 17 24 32 25 29 34 38 38 32 34 37 48 44 42 44 33 37 37 45 51 41 23 26 32 27 27 18 20 36 43 50
35 39 36 31 26 19 9 12 16 12 11 21 31 31 27 33 32 33 37 39 41 39 37 41 43 44 44 40 38 38 40 49 42 41 30 24 33 40 46 36 26 32 40
43 43 38 31 24 15 19 24 22 20 22 31 36 40 44 48 51 43 32 35 40 42 42 42 37 33 39 34 40 49 51 51 52 47 38 27 20 29 33 40 39 37 23
48 44 36 29 18 19 27 30 26 24 28 38 46 53 56 59 64 55 44 39 36 39 40 43 44 45 46 60 67 63 57 52 44 44 39 32 27 33 31 37 36 36 36
51 44 34 32 32 23 29 32 31 30 36 39 45 53 56 54 49 50 56 56 55 57 56 54 56 59 56 44 39 46 51 45 42 44 31 38 33 29 28 28 33 31 33
53 41 39 35 25 22 34 31 28 37 45 56 54 53 48 46 54 59 60 54 40 44 48 50 45 34 27 34 44 45 40 52 37 15 23 31 22 16 19 26 34 33 28
55 50 45 35 28 28 27 28 38 48 58 61 59 55 50 55 54 56 49 47 46 32 27 23 27 37 47 43 44 41 30 16 42 37 29 20 14 23 29 32 30 32 32
52 42 38 32 23 16 28 41 51 52 52 47 49 52 53 55 61 55 55 50 42 35 34 38 44 49 50 43 45 36 35 33 30 34 33 32 33 15 16 17 21 23 24
30 35 33 19 12 24 38 46 45 38 40 46 48 45 51 59 52 47 49 45 36 34 38 41 42 33 32 31 30 30 29 23 22 34 46 25 15 27 31 33 34 31 27
26 25 13 11 21 31 32 30 33 42 47 47 42 50 57 52 51 45 44 36 31 32 32 35 36 35 36 39 34 32 27 23 24 22 36 32 27 9 15 21 24 21 19
Wind_Direction_500mb
141 142 153 151 137 125 118 112 105 97 90 85 81 78 75 73 71 71 69 66 66 65 65 69 75 75 74 81 82 80 78 74 74 66 59 56 60 59 58 59 69 76 80
144 144 149 146 132 126 121 113 101 90 82 77 74 72 67 62 58 56 53 48 43 41 39 39 39 45 59 73 80 81 87 86 80 62 47 43 49 54 53 49 48 62 73
150 141 145 143 137 132 124 114 106 97 91 86 77 64 55 49 42 36 31 27 20 14 11 9 10 10 13 21 37 88 91 57 66 45 22 13 27 52 57 50 37 49 63
149 140 148 148 140 134 124 114 104 96 83 69 58 50 40 30 22 17 12 7 2 356 354 353 351 348 348 348 348 351 330 295 301 337 18 343 251 244 66 57 32 36 66
143 143 149 149 141 131 126 118 104 85 71 58 45 36 31 18 7 7 2 355 350 346 343 341 340 340 338 336 334 328 322 309 306 310 300 307 281 229 255 55 11 2 33
143 144 152 148 139 129 121 107 88 72 54 40 34 22 19 12 1 353 353 349 342 341 339 336 333 332 330 330 329 325 319 312 301 304 281 286 282 252 243 247 289 306 315
122 143 140 134 134 126 113 100 86 65 49 38 39 41 36 25 12 5 6 5 359 351 353 346 339 333 326 324 325 322 319 315 311 287 288 257 283 276 248 246 245 280 290
103 118 124 123 121 112 103 94 84 78 75 71 65 59 41 28 33 9 360 353 359 356 352 350 339 328 323 321 320 309 298 297 286 280 276 273 264 270 239 246 242 257 277
104 106 113 109 109 108 101 97 90 86 75 61 54 42 36 13 18 16 9 7 351 4 2 351 352 342 333 324 310 296 293 285 276 278 276 276 268 258 239 244 248 263 285
125 113 111 114 107 92 91 92 90 86 64 59 42 25 360 11 10 352 353 14 15 13 11 9 351 341 329 320 310 312 303 297 290 287 287 298 294 259 241 241 245 263 279
127 139 127 122 124 99 95 90 105 114 71 53 23 23 358 338 339 344 355 33 329 4 23 345 354 348 7 5 355 344 328 316 304 295 284 292 318 276 269 255 250 265 261
147 138 171 148 141 142 119 132 140 150 113 36 7 358 357 354 343 328 320 318 315 312 324 335 327 325 325 339 1 353 326 331 316 281 288 275 252 211 273 276 271 253 263
157 163 161 178 174 159 144 146 156 136 98 348 342 336 338 331 335 339 342 321 296 293 297 304 304 304 310 318 330 333 326 315 302 293 276 278 266 270 262 253 232 237 261
170 167 169 172 157 143 146 152 139 127 285 319 320 319 313 313 316 321 326 330 313 305 294 295 297 302 306 316 329 329 327 316 300 302 287 277 267 287 276 255 241 242 259
220 192 190 202 193 175 176 168 164 195 256 284 301 305 308 316 315 314 316 315 311 305 302 304 303 306 302 312 302 317 327 325 318 319 315 300 269 286 272 250 239 247 251
207 198 212 195 196 198 211 223 226 254 267 288 303 302 317 313 313 312 310 306 303 297 299 300 299 295 293 310 306 294 312 317 321 321 312 321 294 273 260 232 241 249 253
217 209 204 204 199 201 206 237 266 284 296 300 300 283 287 305 322 315 306 294 278 269 271 288 292 284 284 285 292 298 303 305 308 306 303 304 287 288 262 271 252 248 253
198 197 196 204 206 220 248 274 286 288 275 280 280 278 278 294 304 301 293 282 277 273 273 277 282 274 276 278 275 288 293 300 300 294 291 291 286 276 276 289 288 269 252
183 199 208 206 208 246 292 288 280 270 274 276 280 282 287 294 299 301 292 285 283 280 278 278 273 267 274 281 285 290 293 287 286 290 284 286 281 267 272 286 286 279 272
192 206 218 217 247 278 274 274 286 287 284 287 290 300 304 305 302 298 298 293 288 285 282 281 282 278 283 298 296 297 295 279 277 278 275 275 287 287 271 280 303 298 294
194 209 215 223 233 249 267 286 299 288 305 304 306 306 304 302 304 298 295 293 293 292 292 293 293 294 298 301 302 300 298 299 283 271 280 274 276 300 284 306 291 295 298
199 207 217 220 239 285 274 273 283 305 315 315 319 323 321 316 315 313 311 309 310 291 286 286 290 299 303 305 311 318 321 301 304 275 280 279 286 303 303 299 301 301 300
199 207 214 215 286 288 255 293 308 312 315 328 327 325 323 319 321 320 322 300 304 310 305 297 294 300 302 300 301 305 313 297 314 296 279 289 270 299 311 302 312 309 285
207 208 223 252 262 272 302 310 311 322 324 319 320 319 319 320 321 320 313 306 301 299 296 295 293 292 293 297 294 293 287 287 292 309 298 291 307 297 304 314 312 314 321
198 217 224 233 286 317 313 316 322 319 315 316 316 314 320 324 321 326 320 313 281 292 297 298 304 296 303 306 299 299 304 307 280 272 294 309 271 291 299 300 299 306 319
187 193 212 297 299 306 315 318 316 317 320 320 315 320 325 325 326 329 328 321 303 301 300 298 297 299 300 298 297 294 289 291 292 274 273 292 300 265 286 297 302 312 316
Wind_Speed_850mb
31 28 27 27 27 28 28 27 25 26 27 26 26 26 25 25 24 24 22 21 19 19 18 17 17 18 19 20 23 23 21 22 24 31 31 30 31 29 26 25 24 24 25
29 29 26 25 25 26 25 23 23 23 24 23 22 21 20 20 19 19 18 18 17 16 15 15 14 13 12 11 13 14 16 18 18 19 20 21 20 24 23 22 21 21 22
24 26 25 23 24 23 23 21 20 20 19 17 17 18 17 17 17 17 17 16 16 16 17 16 15 14 13 11 8 5 3 2 4 8 9 10 5 12 15 16 16 16 17
22 23 22 22 21 21 19 18 16 16 15 15 15 16 17 17 18 18 18 19 19 19 19 20 19 18 17 15 12 8 4 7 8 4 5 10 7 3 5 9 11 10 10
25 20 18 17 17 17 16 14 13 12 12 13 13 13 14 15 16 17 18 20 20 21 22 21 22 22 22 21 19 16 10 9 10 7 4 9 16 14 5 2 6 9 5
14 17 20 16 13 12 11 10 10 10 11 10 12 14 15 15 15 16 16 17 19 20 21 23 24 24 25 24 23 21 19 14 10 12 13 13 8 16 18 7 6 11 9
12 14 18 15 12 11 11 10 9 9 10 13 14 15 15 16 16 15 16 19 19 20 23 25 25 26 26 27 27 24 21 18 16 15 18 14 13 15 33 20 14 14 14
27 27 25 22 15 14 13 12 13 14 16 17 19 16 16 18 17 20 21 20 20 23 27 31 29 26 25 25 26 23 18 17 16 17 20 19 22 21 37 31 24 20 19
32 31 31 28 25 23 22 23 22 20 17 14 13 10 11 16 14 14 21 19 21 25 24 23 24 23 20 19 20 22 24 25 23 20 26 28 29 26 20 36 28 23 24
22 25 23 24 27 27 27 21 18 16 13 15 18 13 6 11 13 16 12 15 15 20 18 23 22 22 20 21 23 25 24 30 33 31 31 29 30 32 18 28 29 35 30
18 12 18 20 20 23 19 13 14 9 5 9 15 18 13 13 18 20 18 5 8 17 11 10 19 18 18 21 22 22 24 27 27 28 32 30 19 23 27 35 23 36 40
24 18 28 21 19 13 7 12 9 9 7 7 16 18 16 15 25 24 26 22 16 14 16 16 18 22 22 22 21 24 21 23 23 30 33 36 19 8 15 17 16 31 35
19 20 24 23 19 17 19 21 16 13 4 8 16 21 23 25 30 33 25 26 29 28 27 28 30 33 33 31 27 22 22 24 27 29 30 42 45 50 53 38 34 27 38
19 23 18 18 19 20 21 18 16 8 2 8 12 20 28 33 37 40 41 35 26 33 26 26 32 39 41 35 26 22 19 20 25 24 31 38 38 38 47 44 35 25 32
19 22 24 27 31 23 18 17 14 5 8 12 19 25 30 35 41 46 47 40 35 31 33 36 39 35 31 31 32 30 29 28 28 29 35 37 35 41 37 46 43 32 41
33 29 18 23 27 27 21 23 17 12 12 16 24 28 31 39 36 35 39 41 42 39 43 44 40 38 35 42 36 39 37 36 31 26 29 31 24 30 18 40 40 38 40
38 31 31 27 27 23 17 11 11 15 19 14 17 24 32 25 29 34 38 38 32 34 37 48 44 42 44 33 37 37 45 51 41 23 26 32 27 27 18 20 36 43 50
35 39 36 31 26 19 9 12 16 12 11 21 31 31 27 33 32 33 37 39 41 39 37 41 43 44 44 40 38 38 40 49 42 41 30 24 33 40 46 36 26 32 40
43 43 38 31 24 15 19 24 22 20 22 31 36 40 44 48 51 43 32 35 40 42 42 42 37 33 39 34 40 49 51 51 52 47 38 27 20 29 33 40 39 37 23
48 44 36 29 18 19 27 30 26 24 28 38 46 53 56 59 64 55 44 39 36 39 40 43 44 45 46 60 67 63 57 52 44 44 39 32 27 33 31 37 36 36 36
51 44 34 32 32 23 29 32 31 30 36 39 45 53 56 54 49 50 56 56 55 57 56 54 56 59 56 44 39 46 51 45 42 44 31 38 33 29 28 28 33 31 33
53 41 39 35 25 22 34 31 28 37 45 56 54 53 48 46 54 59 60 54 40 44 48 50 45 34 27 34 44 45 40 52 37 15 23 31 22 16 19 26 34 33 28
55 50 45 35 28 28 27 28 38 48 58 61 59 55 50 55 54 56 49 47 46 32 27 23 27 37 47 43 44 41 30 16 42 37 29 20 14 23 29 32 30 32 32
52 42 38 32 23 16 28 41 51 52 52 47 49 52 53 55 61 55 55 50 42 35 34 38 44 49 50 43 45 36 35 33 30 34 33 32 33 15 16 17 21 23 24
30 35 33 19 12 24 38 46 45 38 40 46 48 45 51 59 52 47 49 45 36 34 38 41 42 33 32 31 30 30 29 23 22 34 46 25 15 27 31 33 34 31 27
26 25 13 11 21 31 32 30 33 42 47 47 42 50 57 52 51 45 44 36 31 32 32 35 36 35 36 39 34 32 27 23 24 22 36 32 27 9 15 21 24 21 19
Wind_Direction_850mb
141 142 153 151 137 125 118 112 105 97 90 85 81 78 75 73 71 71 69 66 66 65 65 69 75 75 74 81 82 80 78 74 74 66 59 56 60 59 58 59 69 76 80
144 144 149 146 132 126 121 113 101 90 82 77 74 72 67 62 58 56 53 48 43 41 39 39 39 45 59 73 80 81 87 86 80 62 47 43 49 54 53 49 48 62 73
150 141 145 143 137 132 124 114 106 97 91 86 77 64 55 49 42 36 31 27 20 14 11 9 10 10 13 21 37 88 91 57 66 45 22 13 27 52 57 50 37 49 63
149 140 148 148 140 134 124 114 104 96 83 69 58 50 40 30 22 17 12 7 2 356 354 353 351 348 348 348 348 351 330 295 301 337 18 343 251 244 66 57 32 36 66
143 143 149 149 141 131 126 118 104 85 71 58 45 36 31 18 7 7 2 355 350 346 343 341 340 340 338 336 334 328 322 309 306 310 300 307 281 229 255 55 11 2 33
143 144 152 148 139 129 121 107 88 72 54 40 34 22 19 12 1 353 353 349 342 341 339 336 333 332 330 330 329 325 319 312 301 304 281 286 282 252 243 247 289 306 315
122 143 140 134 134 126 113 100 86 65 49 38 39 41 36 25 12 5 6 5 359 351 353 346 339 333 326 324 325 322 319 315 311 287 288 257 283 276 248 246 245 280 290
103 118 124 123 121 112 103 94 84 78 75 71 65 59 41 28 33 9 360 353 359 356 352 350 339 328 323 321 320 309 298 297 286 280 276 273 264 270 239 246 242 257 277
104 106 113 109 109 108 101 97 90 86 75 61 54 42 36 13 18 16 9 7 351 4 2 351 352 342 333 324 310 296 293 285 276 278 276 276 268 258 239 244 248 263 285
125 113 111 114 107 92 91 92 90 86 64 59 42 25 360 11 10 352 353 14 15 13 11 9 351 341 329 320 310 312 303 297 290 287 287 298 294 259 241 241 245 263 279
127 139 127 122 124 99 95 90 105 114 71 53 23 23 358 338 339 344 355 33 329 4 23 345 354 348 7 5 355 344 328 316 304 295 284 292 318 276 269 255 250 265 261
147 138 171 148 141 142 119 132 140 150 113 36 7 358 357 354 343 328 320 318 315 312 324 335 327 325 325 339 1 353 326 331 316 281 288 275 252 211 273 276 271 253 263
157 163 161 178 174 159 144 146 156 136 98 348 342 336 338 331 335 339 342 321 296 293 297 304 304 304 310 318 330 333 326 315 302 293 276 278 266 270 262 253 232 237 261
170 167 169 172 157 143 146 152 139 127 285 319 320 319 313 313 316 321 326 330 313 305 294 295 297 302 306 316 329 329 327 316 300 302 287 277 267 287 276 255 241 242 259
220 192 190 202 193 175 176 168 164 195 256 284 301 305 308 316 315 314 316 315 311 305 302 304 303 306 302 312 302 317 327 325 318 319 315 300 269 286 272 250 239 247 251
207 198 212 195 196 198 211 223 226 254 267 288 303 302 317 313 313 312 310 306 303 297 299 300 299 295 293 310 306 294 312 317 321 321 312 321 294 273 260 232 241 249 253
217 209 204 204 199 201 206 237 266 284 296 300 300 283 287 305 322 315 306 294 278 269 271 288 292 284 284 285 292 298 303 305 308 306 303 304 287 288 262 271 252 248 253
198 197 196 204 206 220 248 274 286 288 275 280 280 278 278 294 304 301 293 282 277 273 273 277 282 274 276 278 275 288 293 300 300 294 291 291 286 276 276 289 288 269 252
183 199 208 206 208 246 292 288 280 270 274 276 280 282 287 294 299 301 292 285 283 280 278 278 273 267 274 281 285 290 293 287 286 290 284 286 281 267 272 286 286 279 272
192 206 218 217 247 278 274 274 286 287 284 287 290 300 304 305 302 298 298 293 288 285 282 281 282 278 283 298 296 297 295 279 277 278 275 275 287 287 271 280 303 298 294
194 209 215 223 233 249 267 286 299 288 305 304 306 306 304 302 304 298 295 293 293 292 292 293 293 294 298 301 302 300 298 299 283 271 280 274 276 300 284 306 291 295 298
199 207 217 220 239 285 274 273 283 305 315 315 319 323 321 316 315 313 311 309 310 291 286 286 290 299 303 305 311 318 321 301 304 275 280 279 286 303 303 299 301 301 300
199 207 214 215 286 288 255 293 308 312 315 328 327 325 323 319 321 320 322 300 304 310 305 297 294 300 302 300 301 305 313 297 314 296 279 289 270 299 311 302 312 309 285
207 208 223 252 262 272 302 310 311 322 324 319 320 319 319 320 321 320 313 306 301 299 296 295 293 292 293 297 294 293 287 287 292 309 298 291 307 297 304 314 312 314 321
198 217 224 233 286 317 313 316 322 319 315 316 316 314 320 324 321 326 320 313 281 292 297 298 304 296 303 306 299 299 304 307 280 272 294 309 271 291 299 300 299 306 319
187 193 212 297 299 306 315 318 316 317 320 320 315 320 325 325 326 329 328 321 303 301 300 298 297 299 300 298 297 294 289 291 292 274 273 292 300 265 286 297 302 312 316